sat.trackr.live / text

‹ back to catalog

CENTISPACE-1 S13

NORAD 62582 · 2025-007H

PAYLOAD ACTIVE UNKNOWN

§ Identity

Operator
Country
PRC
Launch date
2025-01-13
Launch site
YSLA
Launch vehicle
Mass (kg)
RCS (m²)

External: N2YO · Heavens-Above · Gunter

§ Orbital elements

Epoch: 2026-05-25T03:10:17.214816Z

Period
104.30 min
Inclination
54.9822°
Eccentricity
0.0012560
Mean motion
13.80607055 rev/d
Perigee alt
952.5 km
Apogee alt
971.0 km
Semi-major
7,339.9 km
B*
1.1643e-4
RAAN
12.1179°
Arg perigee
47.1036°
Mean anomaly
313.0972°
Rev number
7,154

§ Raw data

CENTISPACE-1 S131 62582U 25007H   26145.13214369 -.00000018  00000+0  11643-3 0  99912 62582  54.9822  12.1179 0012560  47.1036 313.0972 13.80607055 71548

JSON: /api/v1/satellites/62582 · /tle

For live sub-satellite position, see the globe view (requires WebGL).

§ Visibility from observer

Set your observer location to see the next 7 days of passes ≥ 10°. The values pass through the URL so the page stays shareable.

No JS? Fill the form by hand. The geolocation button needs JavaScript.

§ Radio — SatNOGS DB

ModeDescriptionDownlinkUplink
BPSK S-band telemetry 2.217 GHz

1 transmitter · refreshed weekly from db.satnogs.org